Retour au catalogue

ARIANE 42P+ DEB

ActifHEO
NORAD 34195·DEBRIS·🇫🇷 France

Lancé Oct 28, 1992 depuis Guiana Space Centre

Loading…

Prochains Passages (prochaines 24 heures)

TLE

FraisSource: Space-Track

Époque: Sep 14, 2026, 12:48 UTC

1 34195U 92072AB  26257.53336205 -.00000023  00000-0  12580-2 0  9995
2 34195   5.6836 323.8660 6573870 202.4915 128.2664  2.94852412142293

Suivez ARIANE 42P+ DEB en temps réel avec AllMySat

Download on the App Store